Weather History for Paris, TX

Change the Weather History Date:

Friday, September 7, 2012

  Actual Average Record
Temperature  
Mean Temperature 88 °F -  
Max Temperature 102 °F 86 °F 102 °F (2012)
Min Temperature 73 °F 65 °F 55 °F (2011)
Cooling Degree Days 22    
Growing Degree Days 38 (Base 50)    
Moisture  
Dew Point 66 °F    
Average Humidity 51    
Maximum Humidity 83    
Minimum Humidity 27    
Precipitation  
Precipitation 0.00 in - - ()
Sea Level Pressure  
Sea Level Pressure 29.85 in    
Wind  
Wind Speed 8 mph (South)    
Max Wind Speed 25 mph    
Max Gust Speed 31 mph    
Visibility 10 miles    
Events      
Averages and records for this station are not official NWS values.
T = Trace of Precipitation, MM = Missing Value Source: NWS Daily Summary

Daily Weather History Graph

Daily Weather History Graph

Search for Another Location

Airport:

Trip Planner

Search our weather history database for the weather conditions in past years. The results will help you decide how hot, cold, wet, or windy it might be!

Date:

Astronomy

Sep. 07, 2012 Rise Set
Actual Time 7:00 AM CDT 7:38 PM CDT
Civil Twilight 6:34 AM CDT 8:03 PM CDT
Nautical Twilight 6:05 AM CDT 8:33 PM CDT
Astronomical Twilight 5:35 AM CDT 9:03 PM CDT
Moon 11:55 PM CDT (9/7) 1:32 PM CDT (9/7)
Length of Visible Light 13h 28m
Length of Day
12h 38m
Waning Gibbous, 58% of the Moon is Illuminated
Sep 7
Waning Gibbous
Sep 8
Last Quarter
Sep 15
New
Sep 22
First Quarter
Sep 29
Full

Hourly Weather History & Observations

Time (CDT) Temp. Heat Index Dew Point Humidity Pressure Visibility Wind Dir Wind Speed Gust Speed Precip Events Conditions
12:15 AM 82.4 °F 84.6 °F 66.2 °F 58% 29.88 in 10.0 mi South 4.6 mph - N/A   Partly Cloudy
12:35 AM 82.4 °F 84.6 °F 66.2 °F 58% 29.88 in 10.0 mi SSW 3.5 mph - N/A   Partly Cloudy
12:55 AM 80.6 °F 82.7 °F 66.2 °F 61% 29.88 in 10.0 mi Calm Calm - N/A   Partly Cloudy
1:15 AM 80.6 °F 82.7 °F 66.2 °F 61% 29.88 in 10.0 mi SE 5.8 mph - N/A   Clear
1:35 AM 80.6 °F 82.7 °F 66.2 °F 61% 29.89 in 10.0 mi East 8.1 mph - N/A   Clear
1:55 AM 80.6 °F 82.7 °F 66.2 °F 61% 29.89 in 10.0 mi SSE 4.6 mph - N/A   Clear
2:15 AM 78.8 °F - 66.2 °F 65% 29.88 in 10.0 mi ESE 5.8 mph - N/A   Clear
2:35 AM 78.8 °F - 66.2 °F 65% 29.88 in 10.0 mi ESE 4.6 mph - N/A   Clear
2:55 AM 78.8 °F - 66.2 °F 65% 29.87 in 10.0 mi SSE 4.6 mph - N/A   Clear
3:15 AM 77.0 °F - 66.2 °F 69% 29.88 in 10.0 mi ESE 5.8 mph - N/A   Clear
3:35 AM 75.2 °F - 66.2 °F 73% 29.88 in 10.0 mi ESE 8.1 mph - N/A   Clear
3:55 AM 75.2 °F - 66.2 °F 73% 29.87 in 10.0 mi ESE 6.9 mph - N/A   Clear
4:15 AM 75.2 °F - 66.2 °F 73% 29.87 in 10.0 mi SE 5.8 mph - N/A   Clear
4:35 AM 75.2 °F - 66.2 °F 73% 29.87 in 10.0 mi SSE 5.8 mph - N/A   Clear
4:55 AM 75.2 °F - 66.2 °F 73% 29.87 in 10.0 mi SSE 5.8 mph - N/A   Clear
5:15 AM 75.2 °F - 66.2 °F 73% 29.87 in 10.0 mi Calm Calm - N/A   Clear
5:35 AM 75.2 °F - 66.2 °F 73% 29.87 in 10.0 mi SSE 5.8 mph - N/A   Clear
5:55 AM 75.2 °F - 66.2 °F 73% 29.87 in 10.0 mi SSE 4.6 mph - N/A   Clear
6:15 AM 75.2 °F - 66.2 °F 73% 29.87 in 10.0 mi SSE 5.8 mph - N/A   Clear
6:35 AM 75.2 °F - 66.2 °F 73% 29.88 in 10.0 mi Calm Calm - N/A   Clear
6:55 AM 73.4 °F - 66.2 °F 78% 29.88 in 10.0 mi SE 6.9 mph - N/A   Clear
7:15 AM 73.4 °F - 66.2 °F 78% 29.89 in 10.0 mi SE 4.6 mph - N/A   Clear
7:35 AM 73.4 °F - 68.0 °F 83% 29.89 in 10.0 mi Calm Calm - N/A   Scattered Clouds
7:55 AM 77.0 °F - 68.0 °F 74% 29.89 in 10.0 mi Calm Calm - N/A   Partly Cloudy
8:15 AM 78.8 °F - 68.0 °F 69% 29.90 in 10.0 mi ESE 4.6 mph - N/A   Clear
8:35 AM 80.6 °F 83.2 °F 68.0 °F 65% 29.90 in 10.0 mi SE 5.8 mph - N/A   Clear
8:55 AM 82.4 °F 85.4 °F 68.0 °F 62% 29.90 in 10.0 mi SW 8.1 mph - N/A   Clear
9:15 AM 84.2 °F 87.3 °F 68.0 °F 58% 29.90 in 10.0 mi WSW 5.8 mph - N/A   Clear
9:35 AM 87.8 °F 92.6 °F 69.8 °F 55% 29.91 in 10.0 mi SW 9.2 mph - N/A   Clear
9:55 AM 87.8 °F 92.6 °F 69.8 °F 55% 29.90 in 10.0 mi SW 8.1 mph - N/A   Clear
10:15 AM 89.6 °F 94.7 °F 69.8 °F 52% 29.90 in 10.0 mi SW 6.9 mph - N/A   Clear
10:35 AM 91.4 °F 95.4 °F 68.0 °F 46% 29.90 in 10.0 mi SW 8.1 mph - N/A   Partly Cloudy
10:55 AM 93.2 °F 97.7 °F 68.0 °F 44% 29.90 in 10.0 mi SW 8.1 mph - N/A   Partly Cloudy
11:15 AM 96.8 °F 100.7 °F 66.2 °F 37% 29.90 in 10.0 mi SW 11.5 mph - N/A   Scattered Clouds
11:35 AM 96.8 °F 100.7 °F 66.2 °F 37% 29.89 in 10.0 mi WSW 10.4 mph 17.3 mph N/A   Partly Cloudy
11:55 AM 98.6 °F 102.8 °F 66.2 °F 35% 29.88 in 10.0 mi SW 10.4 mph 16.1 mph N/A   Clear
12:15 PM 98.6 °F 102.8 °F 66.2 °F 35% 29.88 in 10.0 mi WSW 10.4 mph 16.1 mph N/A   Clear
12:35 PM 100.4 °F 103.6 °F 64.4 °F 31% 29.87 in 10.0 mi WSW 9.2 mph 16.1 mph N/A   Clear
12:55 PM 100.4 °F 103.6 °F 64.4 °F 31% 29.86 in 10.0 mi WSW 11.5 mph 19.6 mph N/A   Clear
1:15 PM 100.4 °F 103.6 °F 64.4 °F 31% 29.85 in 10.0 mi SW 10.4 mph 16.1 mph N/A   Clear
1:35 PM 102.2 °F 104.2 °F 62.6 °F 27% 29.85 in 10.0 mi South 15.0 mph - N/A   Clear
1:55 PM 102.2 °F 105.5 °F 64.4 °F 29% 29.84 in 10.0 mi South 15.0 mph 18.4 mph N/A   Clear
2:15 PM 102.2 °F 104.2 °F 62.6 °F 27% 29.83 in 10.0 mi South 12.7 mph 16.1 mph N/A   Clear
2:35 PM 102.2 °F 104.2 °F 62.6 °F 27% 29.83 in 10.0 mi South 6.9 mph 16.1 mph N/A   Clear
2:55 PM 102.2 °F 104.2 °F 62.6 °F 27% 29.82 in 10.0 mi South 16.1 mph - N/A   Clear
3:15 PM 102.2 °F 104.2 °F 62.6 °F 27% 29.81 in 10.0 mi SW 17.3 mph 20.7 mph N/A   Clear
3:35 PM 102.2 °F 104.2 °F 62.6 °F 27% 29.80 in 10.0 mi SSW 11.5 mph 21.9 mph N/A   Clear
3:55 PM 102.2 °F 104.2 °F 62.6 °F 27% 29.79 in 10.0 mi SW 9.2 mph 19.6 mph N/A   Clear
4:15 PM 102.2 °F 104.2 °F 62.6 °F 27% 29.79 in 10.0 mi South 12.7 mph 20.7 mph N/A   Clear
4:55 PM 102.2 °F 104.2 °F 62.6 °F 27% 29.76 in 10.0 mi South 13.8 mph 20.7 mph N/A   Clear
5:15 PM 102.2 °F 104.2 °F 62.6 °F 27% 29.76 in 10.0 mi SSW 10.4 mph - N/A   Clear
5:35 PM 102.2 °F 104.2 °F 62.6 °F 27% 29.76 in 10.0 mi SW 10.4 mph 18.4 mph N/A   Partly Cloudy
5:55 PM 102.2 °F 104.2 °F 62.6 °F 27% 29.76 in 10.0 mi South 12.7 mph - N/A   Partly Cloudy
6:15 PM 100.4 °F 102.4 °F 62.6 °F 29% 29.76 in 10.0 mi SSW 12.7 mph - N/A   Scattered Clouds
6:35 PM 100.4 °F 102.4 °F 62.6 °F 29% 29.75 in 10.0 mi SSW 12.7 mph - N/A   Partly Cloudy
6:55 PM 98.6 °F 100.0 °F 62.6 °F 30% 29.75 in 10.0 mi SSW 12.7 mph - N/A   Clear
7:15 PM 96.8 °F 99.0 °F 64.4 °F 34% 29.75 in 10.0 mi South 10.4 mph - N/A   Clear
7:35 PM 95.0 °F 97.0 °F 64.4 °F 36% 29.75 in 10.0 mi South 9.2 mph - N/A   Clear
7:55 PM 93.2 °F 94.9 °F 64.4 °F 38% 29.75 in 10.0 mi South 9.2 mph - N/A   Clear
8:15 PM 93.2 °F 94.9 °F 64.4 °F 38% 29.74 in 10.0 mi South 11.5 mph - N/A   Clear
8:35 PM 91.4 °F 93.2 °F 64.4 °F 41% 29.74 in 10.0 mi South 11.5 mph - N/A   Clear
8:55 PM 91.4 °F 93.2 °F 64.4 °F 41% 29.75 in 10.0 mi South 10.4 mph - N/A   Clear
9:15 PM 91.4 °F 93.2 °F 64.4 °F 41% 29.78 in 10.0 mi West 5.8 mph - N/A   Mostly Cloudy
9:35 PM 89.6 °F 91.1 °F 64.4 °F 43% 29.82 in 10.0 mi NNW 25.3 mph 31.1 mph N/A   Mostly Cloudy
9:55 PM 82.4 °F 85.4 °F 68.0 °F 62% 29.84 in 10.0 mi North 20.7 mph 28.8 mph N/A   Scattered Clouds
10:15 PM 80.6 °F 83.2 °F 68.0 °F 65% 29.85 in 10.0 mi North 20.7 mph 27.6 mph N/A   Partly Cloudy
10:35 PM 80.6 °F 83.9 °F 69.8 °F 70% 29.87 in 10.0 mi North 23.0 mph 28.8 mph N/A   Scattered Clouds
10:55 PM 78.8 °F - 69.8 °F 74% 29.88 in 10.0 mi North 21.9 mph 27.6 mph N/A   Partly Cloudy
11:35 PM 78.8 °F - 68.0 °F 69% 29.89 in 10.0 mi North 21.9 mph 29.9 mph N/A   Clear
11:55 PM 78.8 °F - 66.2 °F 65% 29.89 in 10.0 mi North 20.7 mph 31.1 mph N/A   Clear